User: anonymous   Login
Location: Unspecified
(0.0000°N, 0.0000°E)
Time: 03:56:51
(UTC+01:00)
Language:

Cosmos 1538 Rocket - Orbit

View from above orbital plane
View from above orbital plane
View from above satellite
View from above satellite

Ground track
Ground track

The orbit data is extracted from the following two-line orbital elements,

1 14760U 84019B   14297.94981591  .00000467  00000-0  17040-3 0  4525
2 14760 074.0439 094.0848 0027978 193.4352 318.2837 14.35551379604915
Epoch (UTC): 24 October 2014 22:47:44
Eccentricity: 0.0027978
inclination: 74.0439°
perigee height: 753 km
apogee height: 793 km
right ascension of ascending node: 94.0848°
argument of perigee: 193.4352°
revolutions per day: 14.35551379
mean anomaly at epoch: 318.2837°
orbit number at epoch: 60491

The dashed part of the orbit path shows where the satellite is in the earth's shadow,  

DLR